Location: ?????????
(38.0736°N, 23.2119°E)
Time: 04:41:05
(UTC+00:00)

Cosmos 2219 Rocket - Visible Passes

Search period start: 25 July 2024 00:00
Search period end: 04 August 2024 00:00
Orbit: 826 x 847 km, 71.0° (Epoch: 24 July)

Date Brightness Start Highest point End Pass type
(mag) Time Alt. Az. Time Alt. Az. Time Alt. Az.
25 Jul 2.5 02:45:00 10° SSW 02:50:36 73° ESE 02:56:16 10° NNE visible
26 Jul 2.6 02:28:25 10° S 02:34:00 67° ESE 02:39:38 10° NNE visible
27 Jul 2.7 02:11:52 10° S 02:17:23 61° ESE 02:22:59 10° NNE visible
28 Jul 2.8 01:55:44 12° S 02:00:48 56° ESE 02:06:20 10° NNE visible
29 Jul 2.9 01:40:02 17° S 01:44:12 51° ESE 01:49:41 10° NNE visible
30 Jul 3.0 01:24:16 22° SSE 01:27:37 46° ESE 01:33:01 10° NE visible
31 Jul 3.1 01:08:27 27° SSE 01:11:01 42° ESE 01:16:20 10° NE visible
31 Jul 3.4 02:50:25 10° WSW 02:55:05 26° WNW 02:59:48 10° N visible
01 Aug 3.2 00:52:35 30° SE 00:54:26 39° ESE 00:59:39 10° NE visible
01 Aug 3.3 02:34:19 13° WSW 02:38:25 28° WNW 02:43:16 10° N visible
02 Aug 3.2 00:36:41 32° SE 00:37:50 36° ESE 00:42:58 10° NE visible
02 Aug 3.2 02:18:23 17° WSW 02:21:46 30° WNW 02:26:45 10° N visible
03 Aug 3.3 00:20:43 32° ESE 00:21:15 33° ESE 00:26:15 10° NE visible
03 Aug 3.1 02:02:26 22° WSW 02:05:06 33° WNW 02:10:12 10° N visible
